Orbital Elements at Epoch 2459200.5 (2020-Dec-17.0) TDB
Reference: JPL 23 (heliocentric ecliptic J2000)
Element | Value | Uncertainty (1-sigma) | Units |
e | .1656599198645719 | 4.3357e-08 | |
a | 3.174478449480283 | 2.8594e-08 | au |
q | 2.648594603927569 | 1.3864e-07 | au |
i | 5.313450999420167 | 4.5436e-06 | deg |
node | 41.03975798006609 | 6.8445e-05 | deg |
peri | 354.2234092016037 | 7.0839e-05 | deg |
M | 93.73827276037673 | 1.9326e-05 | deg |
tp | 2458662.575347888092 (2019-Jun-28.07534789) | 0.00010795 | TDB |
period | 2065.889087324258 5.66 | 2.7912e-05 7.642e-08 | d yr |
n | .1742591130418683 | 2.3544e-09 | deg/d |
Q | 3.700362295032997 | 3.333e-08 | au |
|
| | Orbit Determination Parameters
Additional Information
|